Tracking 19709 objects as of 20-Jun-2019
HD Live streaming from Space Station
objects crossing your sky now

SL-8 R/B

Track SL-8 R/B now!
10-day predictions


NORAD ID: 10020
Int'l Code: 1977-039B
Perigee: 954.2 km
Apogee: 1,001.9 km
Inclination: 82.9 °
Period: 104.5 minutes
Semi major axis: 7349 km
RCS: 4.936 m2 (large)
Launch date: May 25, 1977
Source: Commonwealth of Independent States (former USSR) (CIS)
Launch site: PLESETSK MISSILE AND SPACE COMPLEX (PKMTR)

Note: This is a ROCKET BODY
aabbcc
Your satellite tracking list
Your tracking list is empty




NASA's NSSDC Master Catalog

Two Line Element Set (TLE):
1 10020U 77039B   19169.95156776 -.00000043 +00000-0 -58529-4 0  9993
2 10020 082.9443 178.7858 0032489 059.4621 300.9737 13.78016380114396
Source of the keplerian elements: AFSPC